This is the latest recevied weather packets stored in our database for station/object WA2FTC. If no packets are shown the sender has not sent any weather packets the latest 10 day(s).
| Time | Temp. | Humidity | Pressure | Rain* | Wind** | Luminosity | Snow |
|---|---|---|---|---|---|---|---|
| 1777673746 | 35° C | 53% | 1007.1 hPa | 0 mm | - | - | - |
| 1777672871 | 36.11° C | 49% | 1007.2 hPa | 0 mm | - | - | - |
| 1777671941 | 37.78° C | 48% | 1007.3 hPa | 0 mm | - | - | - |
| 1777671041 | 36.11° C | 51% | 1007.3 hPa | 0 mm | - | - | - |
| 1777670141 | 37.78° C | 49% | 1007.3 hPa | 0 mm | - | - | - |
| 1777669214 | 37.22° C | 49% | 1007.3 hPa | 0 mm | - | - | - |
| 1777668309 | 38.33° C | 46% | 1007.4 hPa | 0 mm | - | - | - |
| 1777667440 | 40° C | 43% | 1007.5 hPa | 0 mm | - | - | - |
| 1777666541 | 42.22° C | 40% | 1007.6 hPa | 0 mm | - | - | - |
| 1777665632 | 45° C | 39% | 1007.8 hPa | 0 mm | - | - | - |
| 1777664731 | 43.33° C | 41% | 1008.2 hPa | 0 mm | - | - | - |
| 1777663837 | 39.44° C | 44% | 1008.3 hPa | 0 mm | - | - | - |
| 1777662926 | 41.11° C | 41% | 1008.5 hPa | 0 mm | - | - | - |
| 1777662026 | 40.56° C | 43% | 1008.9 hPa | 0 mm | - | - | - |
| 1777661127 | 42.78° C | 42% | 1009 hPa | 0 mm | - | - | - |
| 1777660223 | 44.44° C | 42% | 1009.3 hPa | 0 mm | - | - | - |
| 1777659337 | 43.89° C | 41% | 1009.6 hPa | 0 mm | - | - | - |
| 1777658416 | 43.89° C | 41% | 1009.6 hPa | 0 mm | - | - | - |
| 1777657514 | 43.33° C | 42% | 1009.7 hPa | 0 mm | - | - | - |
| 1777656611 | 40.56° C | 47% | 1009.8 hPa | 0 mm | - | - | - |
| 1777655709 | 40.56° C | 47% | 1010 hPa | 0 mm | - | - | - |
| 1777654835 | 38.89° C | 51% | 1010 hPa | 0 mm | - | - | - |
| 1777653943 | 37.78° C | 52% | 1010.1 hPa | 0 mm | - | - | - |
| 1777653003 | 38.33° C | 55% | 1010.4 hPa | 0 mm | - | - | - |
| 1777652160 | 37.22° C | 58% | 1010.6 hPa | 0 mm | - | - | - |
* Rain latest hour (hover to see other rain measurements)
** Current wind speed in m/s (hover to see current wind gust speed)